LDA9008 LGSA-LOWW

Flight info

Callsign LDA9008
Flight time 2h 16m
Altitude 40000
Route SOKRI UY151 DDM DCT XANIS DCT DIMIS DCT RETRA DCT POD DCT NILKU DCT OBUTI OBUTI2W
Aircraft B736/M-SDE2E3FGHIRWXY/LB1

Departure

Time 2026-04-21 12:06
Airport Chania International Airport (LGSA)

Arrival

Time 2026-04-21 14:22
Airport Vienna International Airport (LOWW)
Time Latitude Longitude Altitude Speed Heading
2026-04-21 11:29 35.53875 24.14062 492 ft 0 kts 22°
2026-04-21 11:52 35.53874 24.14061 497 ft 3 kts 22°
2026-04-21 11:53 35.53849 24.14050 494 ft 4 kts 21°
2026-04-21 11:53 35.53824 24.14038 495 ft 4 kts 19°
2026-04-21 11:53 35.53805 24.14029 497 ft 2 kts 35°
2026-04-21 11:53 35.53797 24.14019 497 ft 2 kts 76°
2026-04-21 11:54 35.53797 24.14002 488 ft 3 kts 107°
2026-04-21 11:54 35.53806 24.13973 489 ft 4 kts 111°
2026-04-21 11:54 35.53811 24.13956 486 ft 2 kts 111°
2026-04-21 11:54 35.53814 24.13946 490 ft 0 kts 111°
2026-04-21 11:57 35.53810 24.13960 486 ft 5 kts 111°
2026-04-21 11:57 35.53784 24.14002 486 ft 7 kts 158°
2026-04-21 11:57 35.53740 24.13992 497 ft 7 kts 202°
2026-04-21 11:58 35.53697 24.13973 497 ft 6 kts 185°
2026-04-21 11:58 35.53668 24.14011 496 ft 6 kts 111°
2026-04-21 11:58 35.53653 24.14062 497 ft 6 kts 111°
2026-04-21 11:58 35.53636 24.14111 492 ft 6 kts 112°
2026-04-21 11:59 35.53620 24.14159 490 ft 6 kts 112°
2026-04-21 11:59 35.53617 24.14168 493 ft 0 kts 111°
2026-04-21 11:59 35.53615 24.14174 493 ft 2 kts 112°
2026-04-21 12:00 35.53601 24.14216 493 ft 8 kts 111°
2026-04-21 12:00 35.53573 24.14305 490 ft 14 kts 112°
2026-04-21 12:00 35.53535 24.14420 492 ft 15 kts 111°
2026-04-21 12:00 35.53498 24.14535 494 ft 14 kts 112°
2026-04-21 12:01 35.53462 24.14644 489 ft 13 kts 112°
2026-04-21 12:01 35.53428 24.14749 492 ft 14 kts 111°
2026-04-21 12:01 35.53389 24.14869 489 ft 17 kts 112°
2026-04-21 12:01 35.53339 24.15020 494 ft 21 kts 112°
2026-04-21 12:02 35.53286 24.15185 492 ft 21 kts 111°
2026-04-21 12:02 35.53176 24.15525 488 ft 25 kts 112°
2026-04-21 12:02 35.53109 24.15728 490 ft 25 kts 112°
2026-04-21 12:03 35.53047 24.15920 496 ft 23 kts 111°
2026-04-21 12:03 35.52988 24.16101 488 ft 22 kts 112°
2026-04-21 12:03 35.52930 24.16276 488 ft 22 kts 111°
2026-04-21 12:03 35.52875 24.16447 497 ft 21 kts 111°
2026-04-21 12:04 35.52822 24.16613 493 ft 21 kts 112°
2026-04-21 12:04 35.52769 24.16774 494 ft 20 kts 112°
2026-04-21 12:04 35.52718 24.16876 497 ft 12 kts 164°
2026-04-21 12:04 35.52642 24.16844 489 ft 11 kts 202°
2026-04-21 12:05 35.52583 24.16791 497 ft 11 kts 264°
2026-04-21 12:05 35.52608 24.16703 495 ft 11 kts 291°
2026-04-21 12:05 35.52679 24.16485 494 ft 60 kts 292°
2026-04-21 12:05 35.52921 24.15736 500 ft 124 kts 293°
2026-04-21 12:06 35.53260 24.14732 1003 ft 131 kts 289°
2026-04-21 12:06 35.53609 24.13659 1683 ft 133 kts 289°
2026-04-21 12:06 35.53955 24.12596 2417 ft 135 kts 291°
2026-04-21 12:06 35.54301 24.11537 3235 ft 133 kts 290°
2026-04-21 12:07 35.54939 24.10661 3786 ft 152 kts 332°
2026-04-21 12:07 35.56060 24.10258 4099 ft 189 kts 354°
2026-04-21 12:07 35.57477 24.10334 4370 ft 217 kts 349°
2026-04-21 12:07 35.58895 24.09545 4738 ft 230 kts 324°
2026-04-21 12:08 35.60287 24.08442 5225 ft 247 kts 324°
2026-04-21 12:08 35.61798 24.07275 5691 ft 265 kts 325°
2026-04-21 12:08 35.63367 24.06085 6755 ft 259 kts 326°
2026-04-21 12:08 35.64902 24.04935 7825 ft 259 kts 326°
2026-04-21 12:09 35.66464 24.03772 8690 ft 265 kts 326°
2026-04-21 12:09 35.68062 24.02587 9556 ft 270 kts 327°
2026-04-21 12:09 35.69682 24.01392 10432 ft 275 kts 327°
2026-04-21 12:09 35.71390 24.00132 10757 ft 300 kts 327°
2026-04-21 12:10 35.73248 23.98763 11111 ft 320 kts 327°
2026-04-21 12:10 35.75171 23.97353 11969 ft 322 kts 327°
2026-04-21 12:10 35.77098 23.95944 12892 ft 324 kts 327°
2026-04-21 12:10 35.79051 23.94515 13736 ft 328 kts 327°
2026-04-21 12:11 35.81023 23.93074 14552 ft 331 kts 327°
2026-04-21 12:11 35.83018 23.91614 15312 ft 336 kts 327°
2026-04-21 12:11 35.84358 23.90632 15814 ft 340 kts 327°
2026-04-21 12:11 35.87095 23.88628 16884 ft 345 kts 327°
2026-04-21 12:12 35.88468 23.87622 17407 ft 348 kts 327°
2026-04-21 12:12 35.90560 23.86088 18186 ft 352 kts 327°
2026-04-21 12:12 35.92680 23.84532 18907 ft 356 kts 327°
2026-04-21 12:12 35.94814 23.82966 19642 ft 359 kts 327°
2026-04-21 12:13 35.96968 23.81385 20366 ft 362 kts 326°
2026-04-21 12:13 35.99139 23.79789 21063 ft 365 kts 326°
2026-04-21 12:13 36.01330 23.78178 21765 ft 369 kts 326°
2026-04-21 12:13 36.03542 23.76551 22438 ft 372 kts 326°
2026-04-21 12:14 36.05778 23.74904 23143 ft 376 kts 326°
2026-04-21 12:14 36.08037 23.73239 23730 ft 381 kts 326°
2026-04-21 12:14 36.10327 23.71550 24287 ft 384 kts 326°
2026-04-21 12:14 36.12624 23.69855 24908 ft 386 kts 326°
2026-04-21 12:15 36.14933 23.68151 25516 ft 388 kts 326°
2026-04-21 12:15 36.17260 23.66432 26094 ft 390 kts 326°
2026-04-21 12:15 36.19598 23.64703 26646 ft 393 kts 326°
2026-04-21 12:15 36.21959 23.62956 27196 ft 396 kts 326°
2026-04-21 12:16 36.24334 23.61198 27730 ft 399 kts 326°
2026-04-21 12:16 36.26724 23.59427 28269 ft 402 kts 326°
2026-04-21 12:16 36.29129 23.57643 28776 ft 404 kts 326°
2026-04-21 12:16 36.31551 23.55846 29276 ft 407 kts 326°
2026-04-21 12:17 36.33993 23.54033 29756 ft 410 kts 326°
2026-04-21 12:17 36.36448 23.52208 30197 ft 413 kts 326°
2026-04-21 12:17 36.38917 23.50372 30572 ft 416 kts 326°
2026-04-21 12:17 36.41406 23.48519 30934 ft 418 kts 326°
2026-04-21 12:18 36.43912 23.46653 31288 ft 421 kts 326°
2026-04-21 12:18 36.46418 23.44785 31739 ft 420 kts 325°
2026-04-21 12:18 36.48918 23.42923 32279 ft 418 kts 325°
2026-04-21 12:18 36.51407 23.41066 32755 ft 417 kts 325°
2026-04-21 12:19 36.53894 23.39208 33165 ft 417 kts 325°
2026-04-21 12:19 36.56379 23.37351 33602 ft 416 kts 325°
2026-04-21 12:19 36.58858 23.35496 34042 ft 415 kts 325°
2026-04-21 12:19 36.61331 23.33644 34405 ft 414 kts 324°
2026-04-21 12:20 36.63798 23.31796 34742 ft 414 kts 324°
2026-04-21 12:20 36.66257 23.29952 35084 ft 413 kts 324°
2026-04-21 12:20 36.68715 23.28107 35426 ft 412 kts 324°
2026-04-21 12:20 36.71168 23.26265 35749 ft 412 kts 324°
2026-04-21 12:21 36.73617 23.24424 36060 ft 411 kts 324°
2026-04-21 12:21 36.76069 23.22579 36382 ft 410 kts 324°
2026-04-21 12:21 36.78505 23.20746 36710 ft 410 kts 324°
2026-04-21 12:21 36.80946 23.18907 37000 ft 409 kts 324°
2026-04-21 12:22 36.83384 23.17068 37294 ft 409 kts 324°
2026-04-21 12:22 36.85812 23.15237 37597 ft 408 kts 324°
2026-04-21 12:22 36.88243 23.13401 37880 ft 407 kts 324°
2026-04-21 12:22 36.90666 23.11570 38145 ft 407 kts 324°
2026-04-21 12:23 36.93087 23.09739 38409 ft 407 kts 324°
2026-04-21 12:23 36.95476 23.07932 38663 ft 406 kts 324°
2026-04-21 12:23 36.97887 23.06105 38853 ft 406 kts 324°
2026-04-21 12:23 37.00308 23.04270 39010 ft 407 kts 324°
2026-04-21 12:24 37.02730 23.02433 39174 ft 407 kts 324°
2026-04-21 12:24 37.05152 23.00594 39357 ft 408 kts 324°
2026-04-21 12:24 37.07577 22.98752 39499 ft 408 kts 324°
2026-04-21 12:24 37.10005 22.96906 39663 ft 409 kts 324°
2026-04-21 12:25 37.12437 22.95056 39841 ft 408 kts 324°
2026-04-21 12:25 37.14866 22.93207 39952 ft 410 kts 324°
2026-04-21 12:25 37.17314 22.91341 39954 ft 412 kts 324°
2026-04-21 12:26 37.22198 22.87616 39951 ft 409 kts 324°
2026-04-21 12:26 37.27044 22.83917 39958 ft 406 kts 324°
2026-04-21 12:27 37.31850 22.80241 39959 ft 404 kts 324°
2026-04-21 12:27 37.36635 22.76574 39960 ft 403 kts 324°
2026-04-21 12:28 37.41428 22.72893 39957 ft 404 kts 324°
2026-04-21 12:28 37.46235 22.69197 39965 ft 406 kts 324°
2026-04-21 12:29 37.51073 22.65472 39949 ft 409 kts 324°
2026-04-21 12:29 37.55932 22.61726 39959 ft 410 kts 324°
2026-04-21 12:30 37.60820 22.57952 39970 ft 413 kts 324°
2026-04-21 12:30 37.65725 22.54158 39964 ft 414 kts 324°
2026-04-21 12:31 37.70643 22.50350 39963 ft 415 kts 324°
2026-04-21 12:31 37.75566 22.46531 39974 ft 416 kts 324°
2026-04-21 12:32 37.80493 22.42703 39971 ft 415 kts 324°
2026-04-21 12:32 37.85413 22.38875 39983 ft 415 kts 324°
2026-04-21 12:33 37.90321 22.35049 39979 ft 414 kts 324°
2026-04-21 12:33 37.95220 22.31224 39969 ft 413 kts 324°
2026-04-21 12:34 38.00070 22.27433 39982 ft 412 kts 324°
2026-04-21 12:34 38.04974 22.23591 39971 ft 411 kts 323°
2026-04-21 12:35 38.09821 22.19790 39984 ft 409 kts 324°
2026-04-21 12:35 38.14659 22.15988 39985 ft 409 kts 324°
2026-04-21 12:36 38.19461 22.12209 39981 ft 409 kts 323°
2026-04-21 12:36 38.24285 22.08406 39985 ft 407 kts 323°
2026-04-21 12:37 38.29101 22.04605 39988 ft 407 kts 323°
2026-04-21 12:37 38.33913 22.00800 39987 ft 407 kts 323°
2026-04-21 12:38 38.38727 21.96987 39997 ft 408 kts 323°
2026-04-21 12:38 38.43554 21.93157 40002 ft 409 kts 323°
2026-04-21 12:39 38.48384 21.89321 40000 ft 409 kts 323°
2026-04-21 12:39 38.53217 21.85476 39980 ft 408 kts 323°
2026-04-21 12:40 38.58020 21.81649 39982 ft 407 kts 323°
2026-04-21 12:40 38.62832 21.77804 39979 ft 409 kts 324°
2026-04-21 12:41 38.67660 21.73945 39979 ft 409 kts 324°
2026-04-21 12:41 38.72489 21.70078 39984 ft 410 kts 324°
2026-04-21 12:42 38.77330 21.66195 39982 ft 411 kts 324°
2026-04-21 12:42 38.82179 21.62298 39985 ft 411 kts 324°
2026-04-21 12:43 38.87032 21.58394 40008 ft 412 kts 323°
2026-04-21 12:43 38.91889 21.54479 39997 ft 413 kts 323°
2026-04-21 12:44 38.96751 21.50553 39989 ft 413 kts 323°
2026-04-21 12:44 39.01603 21.46630 39985 ft 412 kts 323°
2026-04-21 12:45 39.06449 21.42705 39977 ft 411 kts 323°
2026-04-21 12:45 39.11278 21.38787 39977 ft 410 kts 323°
2026-04-21 12:46 39.16088 21.34878 39988 ft 408 kts 323°
2026-04-21 12:46 39.20882 21.30975 39985 ft 407 kts 323°
2026-04-21 12:47 39.25667 21.27073 40002 ft 406 kts 323°
2026-04-21 12:47 39.30451 21.23166 39981 ft 407 kts 323°
2026-04-21 12:48 39.35202 21.19278 39981 ft 407 kts 323°
2026-04-21 12:48 39.39979 21.15365 40006 ft 406 kts 323°
2026-04-21 12:49 39.44761 21.11440 39999 ft 408 kts 323°
2026-04-21 12:49 39.49547 21.07504 39991 ft 408 kts 323°
2026-04-21 12:50 39.54343 21.03555 39986 ft 408 kts 323°
2026-04-21 12:50 39.59121 20.99616 39994 ft 407 kts 323°
2026-04-21 12:51 39.63893 20.95672 40018 ft 407 kts 323°
2026-04-21 12:51 39.68670 20.91718 39994 ft 407 kts 323°
2026-04-21 12:52 39.73447 20.87759 39997 ft 407 kts 323°
2026-04-21 12:52 39.78217 20.83797 39982 ft 407 kts 323°
2026-04-21 12:53 39.82980 20.79836 39975 ft 405 kts 323°
2026-04-21 12:53 39.87719 20.75889 39998 ft 404 kts 323°
2026-04-21 12:54 39.92443 20.71945 39981 ft 403 kts 323°
2026-04-21 12:54 39.97162 20.68000 39977 ft 402 kts 323°
2026-04-21 12:55 40.01875 20.64053 39955 ft 402 kts 323°
2026-04-21 12:55 40.06576 20.60119 39967 ft 402 kts 324°
2026-04-21 12:56 40.11647 20.56944 39964 ft 406 kts 332°
2026-04-21 12:56 40.16848 20.54054 39959 ft 406 kts 332°
2026-04-21 12:57 40.22040 20.51153 39955 ft 405 kts 332°
2026-04-21 12:57 40.26339 20.48728 39966 ft 405 kts 332°
2026-04-21 12:58 40.31518 20.45790 39961 ft 405 kts 332°
2026-04-21 12:58 40.36682 20.42851 39972 ft 405 kts 332°
2026-04-21 12:59 40.41861 20.39898 39962 ft 406 kts 332°
2026-04-21 12:59 40.47048 20.36937 39965 ft 406 kts 332°
2026-04-21 13:00 40.52241 20.33968 39953 ft 408 kts 331°
2026-04-21 13:00 40.57445 20.30985 39961 ft 408 kts 331°
2026-04-21 13:01 40.62647 20.28000 39958 ft 408 kts 331°
2026-04-21 13:01 40.67846 20.25012 39963 ft 408 kts 331°
2026-04-21 13:02 40.73006 20.22040 39963 ft 408 kts 331°
2026-04-21 13:02 40.80839 20.17519 39959 ft 411 kts 331°
2026-04-21 13:03 40.86074 20.14492 39956 ft 410 kts 331°
2026-04-21 13:03 40.91287 20.11474 39965 ft 408 kts 331°
2026-04-21 13:04 40.96475 20.08464 39966 ft 406 kts 331°
2026-04-21 13:04 41.01640 20.05462 39954 ft 405 kts 331°
2026-04-21 13:05 41.06795 20.02459 39956 ft 404 kts 331°
2026-04-21 13:05 41.11943 19.99457 39950 ft 403 kts 331°
2026-04-21 13:06 41.17071 19.96461 39944 ft 402 kts 331°
2026-04-21 13:06 41.22181 19.93469 39959 ft 402 kts 331°
2026-04-21 13:07 41.27299 19.90467 39981 ft 403 kts 330°
2026-04-21 13:07 41.32444 19.87444 39971 ft 405 kts 330°
2026-04-21 13:08 41.37609 19.84405 39966 ft 407 kts 331°
2026-04-21 13:08 41.42788 19.81353 39969 ft 408 kts 330°
2026-04-21 13:09 41.47948 19.78307 39971 ft 409 kts 330°
2026-04-21 13:09 41.53149 19.75231 39955 ft 409 kts 330°
2026-04-21 13:10 41.58354 19.72148 39950 ft 409 kts 330°
2026-04-21 13:10 41.63543 19.69068 39945 ft 408 kts 330°
2026-04-21 13:11 41.68724 19.65988 39945 ft 407 kts 330°
2026-04-21 13:11 41.73892 19.62910 39952 ft 406 kts 330°
2026-04-21 13:12 41.79047 19.59834 39939 ft 405 kts 330°
2026-04-21 13:12 41.84199 19.56753 39951 ft 405 kts 330°
2026-04-21 13:13 41.89353 19.53666 39944 ft 406 kts 330°
2026-04-21 13:13 41.94502 19.50578 39959 ft 405 kts 330°
2026-04-21 13:14 41.99647 19.47486 39949 ft 405 kts 330°
2026-04-21 13:14 42.04790 19.44389 39940 ft 405 kts 330°
2026-04-21 13:15 42.09931 19.41289 39943 ft 405 kts 330°
2026-04-21 13:15 42.15070 19.38183 39938 ft 405 kts 330°
2026-04-21 13:16 42.20210 19.35071 39965 ft 406 kts 330°
2026-04-21 13:16 42.25415 19.32085 39962 ft 408 kts 333°
2026-04-21 13:17 42.30755 19.29445 39967 ft 409 kts 334°
2026-04-21 13:17 42.36089 19.26781 39967 ft 408 kts 334°
2026-04-21 13:18 42.41382 19.24012 39975 ft 407 kts 332°
2026-04-21 13:18 42.46605 19.21022 39972 ft 407 kts 331°
2026-04-21 13:19 42.51821 19.18005 39962 ft 408 kts 331°
2026-04-21 13:19 42.57051 19.15000 39954 ft 409 kts 331°
2026-04-21 13:20 42.62263 19.12015 39960 ft 410 kts 332°
2026-04-21 13:20 42.67520 19.09003 39940 ft 410 kts 332°
2026-04-21 13:21 42.72779 19.05986 39942 ft 411 kts 332°
2026-04-21 13:21 42.78044 19.02959 39938 ft 411 kts 332°
2026-04-21 13:22 42.83303 18.99929 39956 ft 410 kts 332°
2026-04-21 13:22 42.88563 18.96894 39936 ft 410 kts 332°
2026-04-21 13:23 42.93819 18.93855 39938 ft 410 kts 332°
2026-04-21 13:23 42.99069 18.90813 39937 ft 409 kts 332°
2026-04-21 13:24 43.04305 18.87775 39966 ft 409 kts 332°
2026-04-21 13:24 43.09538 18.84733 39956 ft 408 kts 332°
2026-04-21 13:25 43.14761 18.81689 39971 ft 408 kts 331°
2026-04-21 13:25 43.19989 18.78636 39961 ft 409 kts 331°
2026-04-21 13:26 43.25220 18.75577 39980 ft 409 kts 332°
2026-04-21 13:26 43.30457 18.72508 39983 ft 411 kts 332°
2026-04-21 13:27 43.35700 18.69353 39980 ft 410 kts 328°
2026-04-21 13:27 43.40713 18.65633 39979 ft 409 kts 326°
2026-04-21 13:28 43.45676 18.61823 39992 ft 409 kts 326°
2026-04-21 13:28 43.50648 18.58018 39994 ft 409 kts 326°
2026-04-21 13:29 43.55590 18.54254 39995 ft 408 kts 326°
2026-04-21 13:29 43.60593 18.50447 40007 ft 408 kts 326°
2026-04-21 13:30 43.65568 18.46658 40014 ft 408 kts 326°
2026-04-21 13:30 43.70509 18.42888 40021 ft 408 kts 327°
2026-04-21 13:31 43.75473 18.39092 40020 ft 408 kts 327°
2026-04-21 13:31 43.80437 18.35289 40027 ft 408 kts 327°
2026-04-21 13:32 43.85393 18.31485 40016 ft 407 kts 327°
2026-04-21 13:32 43.90345 18.27676 40045 ft 407 kts 327°
2026-04-21 13:33 43.95297 18.23861 40019 ft 407 kts 327°
2026-04-21 13:33 44.00237 18.20048 40013 ft 406 kts 327°
2026-04-21 13:34 44.05167 18.16234 40012 ft 405 kts 327°
2026-04-21 13:34 44.10080 18.12427 40005 ft 404 kts 327°
2026-04-21 13:35 44.14990 18.08614 40009 ft 404 kts 326°
2026-04-21 13:35 44.19896 18.04797 40007 ft 404 kts 326°
2026-04-21 13:36 44.24804 18.00971 40017 ft 404 kts 326°
2026-04-21 13:36 44.29709 17.97140 40008 ft 404 kts 326°
2026-04-21 13:37 44.34619 17.93298 40009 ft 405 kts 326°
2026-04-21 13:37 44.39543 17.89437 40019 ft 406 kts 326°
2026-04-21 13:38 44.44478 17.85560 40013 ft 408 kts 327°
2026-04-21 13:38 44.49423 17.81667 40018 ft 409 kts 327°
2026-04-21 13:39 44.54387 17.77753 40024 ft 409 kts 327°
2026-04-21 13:39 44.59351 17.73831 40035 ft 411 kts 327°
2026-04-21 13:40 44.64302 17.69910 40039 ft 412 kts 327°
2026-04-21 13:40 44.69301 17.65944 40030 ft 413 kts 327°
2026-04-21 13:41 44.74313 17.61960 40041 ft 414 kts 327°
2026-04-21 13:41 44.79334 17.57961 40043 ft 415 kts 327°
2026-04-21 13:42 44.84364 17.53946 40058 ft 416 kts 327°
2026-04-21 13:42 44.89410 17.49911 40047 ft 417 kts 327°
2026-04-21 13:43 44.94449 17.45874 40048 ft 417 kts 326°
2026-04-21 13:43 44.99498 17.41819 40039 ft 417 kts 327°
2026-04-21 13:44 45.04537 17.37765 40060 ft 417 kts 327°
2026-04-21 13:44 45.09570 17.33706 40049 ft 417 kts 327°
2026-04-21 13:45 45.14607 17.29637 40048 ft 417 kts 327°
2026-04-21 13:45 45.18791 17.26250 40051 ft 416 kts 327°
2026-04-21 13:46 45.23821 17.22170 40047 ft 416 kts 327°
2026-04-21 13:46 45.28846 17.18087 40058 ft 416 kts 327°
2026-04-21 13:47 45.33897 17.13973 40044 ft 416 kts 327°
2026-04-21 13:47 45.38878 17.09908 40052 ft 415 kts 327°
2026-04-21 13:48 45.43885 17.05814 40047 ft 415 kts 327°
2026-04-21 13:48 45.48886 17.01716 40051 ft 415 kts 327°
2026-04-21 13:49 45.53883 16.97613 40058 ft 414 kts 327°
2026-04-21 13:49 45.58873 16.93507 40046 ft 414 kts 327°
2026-04-21 13:50 45.63896 16.89365 40049 ft 414 kts 327°
2026-04-21 13:50 45.68886 16.85242 40052 ft 414 kts 327°
2026-04-21 13:51 45.73867 16.81117 40063 ft 414 kts 327°
2026-04-21 13:51 45.78863 16.76972 40058 ft 415 kts 327°
2026-04-21 13:52 45.83822 16.72849 40056 ft 415 kts 327°
2026-04-21 13:52 45.88815 16.68689 40054 ft 415 kts 327°
2026-04-21 13:53 45.91317 16.66600 39902 ft 418 kts 327°
2026-04-21 13:53 45.93828 16.64503 39665 ft 416 kts 327°
2026-04-21 13:53 45.96313 16.62426 39446 ft 413 kts 327°
2026-04-21 13:53 45.98802 16.60343 39228 ft 415 kts 326°
2026-04-21 13:54 46.01302 16.58246 39022 ft 417 kts 326°
2026-04-21 13:54 46.03810 16.56142 38803 ft 418 kts 326°
2026-04-21 13:54 46.06322 16.54031 38556 ft 419 kts 326°
2026-04-21 13:54 46.08846 16.51909 38285 ft 419 kts 326°
2026-04-21 13:55 46.11356 16.49798 38012 ft 418 kts 326°
2026-04-21 13:55 46.13870 16.47680 37740 ft 417 kts 326°
2026-04-21 13:55 46.16366 16.45576 37487 ft 415 kts 326°
2026-04-21 13:55 46.18849 16.43480 37221 ft 413 kts 326°
2026-04-21 13:56 46.21325 16.41387 36974 ft 411 kts 326°
2026-04-21 13:56 46.23791 16.39300 36730 ft 410 kts 326°
2026-04-21 13:56 46.26244 16.37222 36473 ft 408 kts 326°
2026-04-21 13:56 46.28687 16.35150 36235 ft 407 kts 326°
2026-04-21 13:57 46.31126 16.33080 35992 ft 406 kts 326°
2026-04-21 13:57 46.33559 16.31012 35750 ft 405 kts 325°
2026-04-21 13:57 46.35986 16.28949 35511 ft 404 kts 326°
2026-04-21 13:57 46.38541 16.27206 35249 ft 411 kts 338°
2026-04-21 13:58 46.41360 16.26361 35053 ft 416 kts 345°
2026-04-21 13:58 46.44221 16.25716 34833 ft 416 kts 346°
2026-04-21 13:58 46.47086 16.25098 34605 ft 416 kts 346°
2026-04-21 13:58 46.49948 16.24473 34379 ft 416 kts 346°
2026-04-21 13:59 46.52809 16.23831 34149 ft 416 kts 345°
2026-04-21 13:59 46.55661 16.23175 33899 ft 415 kts 345°
2026-04-21 13:59 46.58515 16.22506 33623 ft 415 kts 345°
2026-04-21 13:59 46.61358 16.21834 33274 ft 414 kts 345°
2026-04-21 14:00 46.64197 16.21159 32651 ft 410 kts 345°
2026-04-21 14:00 46.66998 16.20494 32065 ft 406 kts 345°
2026-04-21 14:00 46.69775 16.19833 31523 ft 402 kts 345°
2026-04-21 14:00 46.72513 16.19180 30990 ft 398 kts 345°
2026-04-21 14:01 46.75233 16.18531 30477 ft 394 kts 345°
2026-04-21 14:01 46.77927 16.17887 29924 ft 391 kts 345°
2026-04-21 14:01 46.80595 16.17248 29334 ft 386 kts 346°
2026-04-21 14:01 46.83229 16.16617 28805 ft 381 kts 346°
2026-04-21 14:02 46.85832 16.15993 28288 ft 376 kts 346°
2026-04-21 14:02 46.88398 16.15368 27747 ft 373 kts 347°
2026-04-21 14:02 46.90950 16.14754 27261 ft 369 kts 347°
2026-04-21 14:03 46.95982 16.13551 26233 ft 364 kts 348°
2026-04-21 14:03 46.98475 16.12952 25758 ft 361 kts 348°
2026-04-21 14:03 47.00950 16.12355 25274 ft 359 kts 348°
2026-04-21 14:03 47.03410 16.11761 24790 ft 358 kts 348°
2026-04-21 14:04 47.05858 16.11169 24321 ft 356 kts 348°
2026-04-21 14:04 47.08296 16.10579 23854 ft 354 kts 348°
2026-04-21 14:04 47.10718 16.09991 23311 ft 353 kts 348°
2026-04-21 14:04 47.13137 16.09405 22794 ft 350 kts 348°
2026-04-21 14:05 47.15529 16.08825 22311 ft 347 kts 348°
2026-04-21 14:05 47.17898 16.08251 21841 ft 343 kts 348°
2026-04-21 14:05 47.20243 16.07680 21377 ft 340 kts 348°
2026-04-21 14:05 47.22569 16.07114 20916 ft 337 kts 348°
2026-04-21 14:06 47.24875 16.06553 20457 ft 334 kts 348°
2026-04-21 14:06 47.27159 16.05996 20012 ft 332 kts 349°
2026-04-21 14:06 47.29400 16.05450 19571 ft 329 kts 348°
2026-04-21 14:06 47.31679 16.04893 19131 ft 327 kts 348°
2026-04-21 14:07 47.33919 16.04346 18674 ft 324 kts 347°
2026-04-21 14:07 47.36114 16.03866 18228 ft 324 kts 353°
2026-04-21 14:07 47.38375 16.04245 17888 ft 324 kts 12°
2026-04-21 14:07 47.40490 16.05214 17611 ft 323 kts 14°
2026-04-21 14:08 47.42642 16.06301 17230 ft 331 kts 15°
2026-04-21 14:08 47.44824 16.07441 16832 ft 335 kts 20°
2026-04-21 14:08 47.46800 16.09324 16314 ft 346 kts 42°
2026-04-21 14:08 47.48275 16.12121 15993 ft 347 kts 56°
2026-04-21 14:09 47.49394 16.15262 15627 ft 342 kts 60°
2026-04-21 14:09 47.50406 16.18412 15248 ft 338 kts 62°
2026-04-21 14:09 47.51385 16.21538 14888 ft 332 kts 63°
2026-04-21 14:09 47.52353 16.24619 14461 ft 329 kts 63°
2026-04-21 14:10 47.53321 16.27670 14006 ft 327 kts 62°
2026-04-21 14:10 47.54287 16.30699 13543 ft 324 kts 62°
2026-04-21 14:10 47.55245 16.33689 13097 ft 320 kts 62°
2026-04-21 14:10 47.56197 16.36657 12660 ft 317 kts 61°
2026-04-21 14:11 47.57143 16.39588 12212 ft 314 kts 63°
2026-04-21 14:11 47.58083 16.42500 11776 ft 311 kts 62°
2026-04-21 14:11 47.59009 16.45372 11352 ft 308 kts 62°
2026-04-21 14:11 47.59966 16.48204 10847 ft 306 kts 55°
2026-04-21 14:12 47.61443 16.50376 10452 ft 297 kts 32°
2026-04-21 14:12 47.63209 16.51910 10055 ft 292 kts 28°
2026-04-21 14:12 47.64988 16.53313 9826 ft 284 kts 27°
2026-04-21 14:12 47.66697 16.54646 9696 ft 272 kts 27°
2026-04-21 14:13 47.68354 16.55946 9365 ft 268 kts 26°
2026-04-21 14:13 47.69995 16.57244 9041 ft 265 kts 26°
2026-04-21 14:13 47.71615 16.58533 8705 ft 261 kts 27°
2026-04-21 14:13 47.73185 16.59790 8379 ft 252 kts 26°
2026-04-21 14:14 47.74722 16.61022 7778 ft 254 kts 26°
2026-04-21 14:14 47.76285 16.62278 7213 ft 255 kts 27°
2026-04-21 14:14 47.77829 16.63520 6803 ft 250 kts 26°
2026-04-21 14:14 47.79349 16.64747 6345 ft 247 kts 27°
2026-04-21 14:15 47.80860 16.65966 5813 ft 247 kts 27°
2026-04-21 14:15 47.82375 16.67190 5335 ft 245 kts 27°
2026-04-21 14:15 47.83881 16.68361 4841 ft 242 kts 20°
2026-04-21 14:15 47.85527 16.68557 4341 ft 240 kts 350°
2026-04-21 14:16 47.87164 16.68027 3975 ft 240 kts 349°
2026-04-21 14:16 47.88759 16.67528 3898 ft 229 kts 349°
2026-04-21 14:16 47.90273 16.66996 3815 ft 220 kts 347°
2026-04-21 14:16 47.91723 16.66407 3667 ft 212 kts 347°
2026-04-21 14:17 47.93118 16.65817 3568 ft 204 kts 346°
2026-04-21 14:17 47.94438 16.65255 3477 ft 189 kts 346°
2026-04-21 14:17 47.95654 16.64737 3338 ft 176 kts 347°
2026-04-21 14:17 47.96805 16.64251 3118 ft 168 kts 346°
2026-04-21 14:18 47.97907 16.63783 2904 ft 161 kts 346°
2026-04-21 14:18 47.98967 16.63333 2663 ft 155 kts 345°
2026-04-21 14:18 47.99960 16.62912 2461 ft 147 kts 344°
2026-04-21 14:18 48.00938 16.62497 2270 ft 143 kts 343°
2026-04-21 14:19 48.01874 16.62100 2070 ft 139 kts 343°
2026-04-21 14:19 48.02753 16.61727 1893 ft 123 kts 343°
2026-04-21 14:19 48.03540 16.61393 1732 ft 119 kts 343°
2026-04-21 14:19 48.04327 16.61059 1565 ft 115 kts 343°
2026-04-21 14:20 48.05077 16.60741 1409 ft 111 kts 343°
2026-04-21 14:20 48.05828 16.60423 1275 ft 115 kts 343°
2026-04-21 14:20 48.06618 16.60088 1109 ft 118 kts 341°
2026-04-21 14:20 48.07389 16.59761 942 ft 113 kts 343°
2026-04-21 14:21 48.08157 16.59432 780 ft 119 kts 343°
2026-04-21 14:21 48.08960 16.59097 647 ft 117 kts 343°
2026-04-21 14:21 48.09682 16.58789 615 ft 94 kts 344°
2026-04-21 14:21 48.10201 16.58571 615 ft 65 kts 344°
2026-04-21 14:22 48.10589 16.58404 610 ft 52 kts 344°
2026-04-21 14:22 48.10900 16.58273 621 ft 42 kts 345°
2026-04-21 14:22 48.11156 16.58166 619 ft 35 kts 344°
2026-04-21 14:22 48.11369 16.58076 613 ft 30 kts 344°
2026-04-21 14:23 48.11560 16.57995 619 ft 28 kts 344°
2026-04-21 14:23 48.11732 16.57922 619 ft 20 kts 344°
2026-04-21 14:23 48.11828 16.57839 612 ft 13 kts 311°
2026-04-21 14:23 48.11861 16.57755 608 ft 8 kts 290°
2026-04-21 14:24 48.11857 16.57671 611 ft 8 kts 258°
2026-04-21 14:24 48.11845 16.57591 621 ft 8 kts 256°
2026-04-21 14:24 48.11829 16.57506 618 ft 10 kts 251°
2026-04-21 14:24 48.11807 16.57393 611 ft 13 kts 262°
2026-04-21 14:25 48.11841 16.57253 613 ft 15 kts 297°
2026-04-21 14:25 48.11906 16.57128 616 ft 15 kts 298°
2026-04-21 14:25 48.11951 16.56990 615 ft 14 kts 296°
2026-04-21 14:25 48.11993 16.56859 612 ft 12 kts 295°
2026-04-21 14:26 48.12027 16.56755 613 ft 6 kts 296°
2026-04-21 14:26 48.12050 16.56748 608 ft 4 kts 14°
2026-04-21 14:26 48.12074 16.56764 610 ft 4 kts 26°
2026-04-21 14:26 48.12083 16.56771 608 ft 0 kts 25°